Tracking 18957 objects as of 22-Jan-2018
HD Live streaming from Space Station
objects crossing your sky now

SL-8 R/B

Track SL-8 R/B now!
10-day predictions


NORAD ID: 25592
Int'l Code: 1998-076B
Perigee: 973.7 km
Apogee: 1,010.3 km
Inclination: 82.9 °
Period: 104.8 minutes
Semi major axis: 7363 km
RCS: 5.138 m2 (large)
Launch date: December 24, 1998
Source: Commonwealth of Independent States (former USSR) (CIS)
Launch site: PLESETSK MISSILE AND SPACE COMPLEX (PKMTR)

Note: This is a ROCKET BODY
aabbcc
Your satellite tracking list
Your tracking list is empty




NASA's NSSDC Master Catalog

Two Line Element Set (TLE):
1 25592U 98076B   18022.38421381 +.00000041 +00000-0 +27917-4 0  9991
2 25592 082.9358 304.5496 0024858 313.9263 174.9055 13.74104471956514
Source of the keplerian elements: AFSPC